DELTA 1 DEB

Satellite information

Favourite Embed

Satellite Type and Status

DEBRISIN ORBIT

Key statistics

Satellite DELTA 1 DEB at a glance.

Uptime

17876

Days in orbit

Revolutions

≈ 12.3

Per day

Orbit

SSO

Sun Synchronous Orbit

Inclination

102.5

Latest

Satellite identification and parameters

Extended collection of information and parameters for DELTA 1 DEB.

Object identification

Identified? True

Debris? True

Object name: DELTA 1 DEB

International designator: 1976-077GB

Object number (NORAD): 40758

Object ID (CCSDS): 40758

Country: UNITED STATES OF AMERICA (US)

Current information (Y/N): Y

RCS size: SMALL

Orbital parameters

Period: 117.507 minutes

Inclination: 102.4716 deg

SMA: 7946.981 km

Apoapsis: 1640.198 km

Periapsis: 1497.494 km

RAAN: 150.7851 deg

Eccentricy: 0.0089785

Argument of periapsis: 2.8545 deg

Mean anomaly: 23.0562 deg

Mean motion: 12.25461076 rev/day

Mean motion (dot): -0.00000018 rev/day2

B* drag term: 0.00024441 1/REarth

Two-line elements (TLE)

Creation date: July 3, 2025, 5:26 p.m.

Reference frame: TEME

Reference center: EARTH

Epoch: July 3, 2025, 4:02 a.m. UTC

TLE line 0: 0 DELTA 1 DEB

TLE line 1: 1 40758U 76077GB 25184.16833588 -.00000018 00000-0 24441-3 0 9991

TLE line 2: 2 40758 102.4716 150.7851 0089785 2.8545 23.0562 12.25461076519350

Live tracking on map

Real-time ground track for satellite DELTA 1 DEB.

In-orbit conjunctions

A list of the most updated potential collisions computed for object DELTA 1 DEB.

Target Orbit TCA Probability of collision Miss distance Type
COSMOS 80 LEO 2025-03-14 14:24:49 0.0001069371 731.0 (m) PAYLOAD

Associated space launch

Meteorological satellite using radiometric imaging

DELTA 1 DEB was lifted into orbit during the mission ‘Delta 2310 | NOAA 5’, on board a Delta 2310 space rocket.

The launch took place on July 29, 1976, 5:07 p.m. from Space Launch Complex 2W.

For more information about the launch, click the button.

Launch to space Delta 2310 | NOAA 5
Delta 2310 | NOAA 5

Agency: N/A

Status: Launch Successful

Launch date: July 29, 1976, 5:07 p.m. UTC

Rocket: Delta 2310

Launch pad: Space Launch Complex 2W

Location: Vandenberg SFB, CA, USA

...

Latest news about this satellite

There are no fresh news available about this satellite. Check back as we update our databases every day.


Newsletter sign-up

Weekly statistics, charts and insights to help you stay on top of the space industry.